Flag for Germany Weather past 2 weeks in Tönisvorst, North Rhine-Westphalia, Germany

Now
84 °F

Passing clouds.


Feels Like: 84 °F
Forecast: 58 / 64 °F
Wind: 6 mph from Southeast

Location: Monchengladbach Airport

Current Time: Jul 7, 2015 at 1:30:34 PM

Latest Report: Jul 7, 2015 at 12:50 PM


Visibility: N/A

Pressure: 29.80 "Hg

Humidity: 45%

Dew point: 61 °F

Location of TönisvorstLocation

Historic Weather in Tönisvorst — Graph

°F

Tönisvorst temperature yesterday

Maximum temperature yesterday: 77 °F (at 3:20 PM)
Minimum temperature yesterday: 61 °F (at 7:50 AM)
Average temperature yesterday: 72 °F

Past Weeks' High & Low Weather Summary

 TemperatureHumidityPressure
High99 °F (Jul 2, 3:50 PM)100% (Jun 22, 7:50 PM)30.24 "Hg (Jun 22, 7:50 PM)
Low50 °F (Jun 22, 8:20 PM)29% (Jun 30, 5:50 PM)29.71 "Hg (Jun 22, 6:20 PM)
Average74 °F58%30.07 "Hg
* Reported Jun 22 12:20 PM — Jul 7 12:20 PM, Tönisvorst, Weather by CustomWeather, © 2015

Note: Actual official high and low records may vary slightly from our data, if they occured in-between our weather recording intervals... More about our weather records

Advertising

Tönisvorst weather history for previous 24 hours

 ConditionsComfort  
Time TempWeatherWind HumidityBarometerVisibility
12:20 PM
Tue, Jul 7
84 °FPassing clouds.6 mph43%29.80 "HgN/A
11:50 AM82 °FPassing clouds.7 mph45%29.83 "HgN/A
11:20 AM81 °FSunny.7 mph45%29.83 "Hg10 mi
10:50 AM79 °FPassing clouds.6 mph48%29.86 "HgN/A
10:20 AM77 °FPassing clouds.6 mph54%29.86 "HgN/A
9:50 AM75 °FPassing clouds.6 mph57%29.86 "HgN/A
9:20 AM72 °FPassing clouds.5 mph65%29.89 "HgN/A
8:50 AM70 °FPassing clouds.5 mph69%29.89 "HgN/A
8:20 AM68 °FPassing clouds.5 mph73%29.92 "HgN/A
7:50 AM66 °FSunny.6 mph73%29.92 "Hg10 mi
8:20 PM
Mon, Jul 6
77 °FClear.5 mph39%30.07 "Hg10 mi
7:50 PM77 °FPassing clouds.5 mph34%30.07 "HgN/A
7:20 PM77 °FPassing clouds.6 mph42%30.09 "HgN/A
6:50 PM77 °FPassing clouds.5 mph39%30.09 "HgN/A
6:20 PM77 °FClear.5 mph39%30.09 "Hg10 mi
5:50 PM77 °FClear.7 mph42%30.12 "Hg10 mi
5:20 PM77 °FClear.6 mph36%30.12 "Hg10 mi
4:50 PM77 °FClear.6 mph42%30.12 "Hg10 mi
4:20 PM75 °FClear.5 mph44%30.12 "Hg10 mi
3:50 PM77 °FClear.7 mph42%30.12 "Hg10 mi
3:20 PM77 °FClear.6 mph42%30.15 "Hg10 mi
2:50 PM75 °FClear.9 mph41%30.15 "Hg10 mi
2:20 PM75 °FPassing clouds.9 mph44%30.15 "HgN/A
1:50 PM73 °FPassing clouds.12 mph41%30.15 "HgN/A
1:20 PM72 °FPassing clouds.10 mph44%30.15 "HgN/A
Weather by CustomWeather, © 2015

See weather overviewHow to use our weather pages